Simultaneous Nadir Overpasses (SNOs) Predictions

Prediction of SNOs between AQUA and GOES-15 Satellite Orbit:

Table of predicted SNOs for the next 14.0 days since TLE Epoch: 9/24/2022
Index Date Time (AQUA) AQUA Lat,Lon GOES-15 Lat,Lon Distance(km) Time Diff (sec)
1 09/25/2022 09:56:11 -0.53,-123.94 0.31,-128.01 461.59 80
2 09/25/2022 22:17:27 -0.53,-129.10 -0.29,-127.96 130.10 80
3 09/27/2022 22:04:42 0.11,-126.00 -0.30,-128.01 228.63 80
4 09/28/2022 10:25:50 0.93,-131.13 0.28,-128.10 344.68 80
5 09/30/2022 10:13:05 0.27,-128.02 0.29,-128.14 12.98 80
6 10/02/2022 10:00:20 -0.41,-124.92 0.28,-128.17 369.63 80
7 10/02/2022 22:21:34 -0.70,-130.07 -0.27,-128.11 223.74 80
8 10/04/2022 22:08:49 0.00,-126.97 -0.26,-128.14 132.45 80
9 10/05/2022 10:29:56 1.08,-132.09 0.24,-128.22 440.56 80
10 10/06/2022 21:56:04 0.66,-123.87 -0.26,-128.16 488.83 80
11 10/07/2022 10:17:10 0.43,-128.99 0.24,-128.25 84.32 80
